New Philadelphia, OH

3:44 PM EDT on May 23, 2018 (GMT -0400)
Clever

Weather History for KPHD - February, 2014

Change the Weather History Date:

Thursday, February 27, 2014

  Actual Average Record
Temperature  
Mean Temperature 14 °F 34 °F  
Max Temperature 22 °F 44 °F 66 °F (2000)
Min Temperature 5 °F 24 °F -14 °F (1963)
Degree Days  
Heating Degree Days 51 31  
Month to date heating degree days 1098 904  
Since 1 July heating degree days 4583 4176  
Cooling Degree Days 0 0  
Month to date cooling degree days 0 0  
Year to date cooling degree days 0 0  
Moisture  
Dew Point 3 °F    
Average Humidity 57    
Maximum Humidity 67    
Minimum Humidity 47    
Precipitation  
Precipitation T in 0.09 in 0.66 in (1996)
Month to date precipitation 1.97 2.26  
Year to date precipitation 3.79 4.86  
Sea Level Pressure  
Sea Level Pressure 29.89 in    
Wind  
Wind Speed 11 mph (WNW)    
Max Wind Speed 26 mph    
Max Gust Speed 36 mph    
Visibility 7 miles    
Events Snow    
T = Trace of Precipitation, MM = Missing Value Source: NWS Daily Summary

Daily Weather History Graph

Daily Weather History Graph

Search for Another Location

Airport or City:

Astronomy

Feb. 27, 2014 Rise Set
Actual Time 7:02 AM EST 6:14 PM EST
Civil Twilight 6:35 AM EST 6:42 PM EST
Nautical Twilight 6:03 AM EST 7:13 PM EST
Astronomical Twilight 5:31 AM EST 7:45 PM EST
Moon 5:34 AM EST (2/27) 4:38 PM EST (2/27)
Length of Visible Light 12h 07m
Length of Day
11h 12m
Waning Crescent, 4% of the Moon is Illuminated
Feb 27
Waning Crescent
Mar 1
New
Mar 8
First Quarter
Mar 16
Full
Mar 23
Last Quarter

Hourly Weather History & Observations

Time (EST) Temp. Windchill Dew Point Humidity Pressure Visibility Wind Dir Wind Speed Gust Speed Precip Events Conditions
12:53 AM 18.0 °F 7.7 °F 3.9 °F 54% 29.79 in 10.0 mi SW 8.1 mph - N/A   Overcast
1:53 AM 17.1 °F 6.6 °F 3.0 °F 54% 29.77 in 10.0 mi SW 8.1 mph - N/A   Overcast
2:53 AM 17.1 °F 7.6 °F 1.9 °F 52% 29.75 in 10.0 mi SW 6.9 mph - N/A   Mostly Cloudy
3:53 AM 16.0 °F 7.4 °F 1.9 °F 54% 29.72 in 10.0 mi SW 5.8 mph - N/A   Mostly Cloudy
4:53 AM 17.1 °F 5.0 °F 1.9 °F 52% 29.70 in 10.0 mi SSW 10.4 mph 18.4 mph N/A   Overcast
5:53 AM 17.1 °F 5.8 °F 3.0 °F 54% 29.70 in 10.0 mi SW 9.2 mph - N/A   Overcast
6:53 AM 18.0 °F 2.2 °F 3.0 °F 52% 29.70 in 10.0 mi SW 18.4 mph 27.6 mph N/A   Overcast
7:53 AM 19.0 °F 7.5 °F 3.9 °F 52% 29.71 in 10.0 mi WSW 10.4 mph 20.7 mph N/A   Overcast
8:53 AM 19.9 °F 7.3 °F 5.0 °F 52% 29.73 in 10.0 mi West 12.7 mph 28.8 mph N/A   Overcast
9:15 AM 19.9 °F 6.2 °F 8.1 °F 60% 29.70 in 1.8 mi West 15.0 mph 28.8 mph 0.00 in Snow Light Snow
9:18 AM 19.9 °F 7.3 °F 10.0 °F 65% 29.70 in 1.0 mi NW 12.7 mph 25.3 mph 0.00 in Snow Light Snow
9:25 AM 18.0 °F 3.6 °F 12.0 °F 78% 29.71 in 0.5 mi WNW 15.0 mph 21.9 mph 0.00 in Snow Snow
9:42 AM 19.0 °F 8.2 °F 10.0 °F 68% 29.72 in 2.5 mi West 9.2 mph 26.5 mph 0.00 in Snow Light Snow
9:45 AM 19.0 °F 5.6 °F 10.0 °F 68% 29.72 in 4.0 mi West 13.8 mph 21.9 mph 0.00 in Snow Light Snow
9:53 AM 19.9 °F 7.3 °F 10.0 °F 65% 29.77 in 9.0 mi West 12.7 mph 24.2 mph 0.00 in   Mostly Cloudy
10:53 AM 21.0 °F 5.7 °F 5.0 °F 50% 29.81 in 10.0 mi West 19.6 mph 29.9 mph N/A   Overcast
11:08 AM 19.0 °F 3.2 °F 10.0 °F 68% 29.79 in 1.8 mi WNW 19.6 mph 35.7 mph 0.00 in Snow Light Snow
11:12 AM 18.0 °F 3.1 °F 10.0 °F 71% 29.79 in 1.0 mi WNW 16.1 mph 28.8 mph 0.00 in Snow Light Snow
11:22 AM 18.0 °F 6.1 °F 9.0 °F 68% 29.80 in 2.0 mi WNW 10.4 mph 24.2 mph 0.00 in Snow Light Snow
11:30 AM 19.9 °F 5.7 °F 7.0 °F 57% 29.80 in 9.0 mi West 16.1 mph 31.1 mph 0.00 in   Overcast
11:48 AM 19.4 °F 2.5 °F 5.0 °F 54% 29.82 in 10.0 mi WNW 23.0 mph 33.4 mph 0.00 in   Overcast
11:53 AM 18.0 °F 0.9 °F 6.1 °F 60% 29.87 in 4.0 mi WNW 21.9 mph 33.4 mph 0.00 in Snow Light Snow
11:59 AM 18.0 °F 1.3 °F 8.1 °F 65% 29.83 in 2.5 mi NW 20.7 mph 32.2 mph 0.00 in Snow Light Snow
12:08 PM 19.0 °F 3.6 °F 7.0 °F 59% 29.84 in 7.0 mi West 18.4 mph 28.8 mph 0.00 in Snow Light Snow
12:17 PM 19.9 °F 4.8 °F 5.0 °F 52% 29.85 in 10.0 mi WNW 18.4 mph 32.2 mph 0.00 in   Mostly Cloudy
12:53 PM 19.9 °F 5.2 °F -2.9 °F 37% 29.91 in 10.0 mi WNW 17.3 mph 34.5 mph 0.00 in   Overcast
1:53 PM 19.0 °F 4.0 °F 3.9 °F 52% 29.95 in 10.0 mi NW 17.3 mph 25.3 mph N/A   Overcast
2:22 PM 19.0 °F 3.6 °F 3.0 °F 50% 29.93 in 5.0 mi West 18.4 mph 26.5 mph 0.00 in Snow Light Snow
2:30 PM 17.1 °F 2.5 °F -0.9 °F 45% 29.94 in 9.0 mi West 15.0 mph 28.8 mph 0.00 in   Overcast
2:53 PM 16.0 °F -0.9 °F 3.0 °F 57% 30.01 in 6.0 mi WNW 19.6 mph 28.8 mph 0.00 in Snow Light Snow
2:57 PM 15.1 °F -0.1 °F 3.0 °F 59% 29.96 in 2.5 mi NW 15.0 mph 28.8 mph 0.00 in Snow Light Snow
3:08 PM 14.0 °F -1.4 °F 5.0 °F 67% 29.97 in 1.5 mi NW 15.0 mph 27.6 mph 0.00 in Snow Light Snow
3:13 PM 15.1 °F 1.8 °F 3.9 °F 61% 29.97 in 3.0 mi NW 11.5 mph 21.9 mph 0.00 in Snow Light Snow
3:35 PM 15.1 °F -1.1 °F 1.0 °F 54% 29.99 in 10.0 mi NW 17.3 mph 25.3 mph 0.00 in   Overcast
3:53 PM 15.1 °F 3.3 °F -0.9 °F 49% 30.04 in 10.0 mi NW 9.2 mph 24.2 mph 0.00 in   Overcast
4:53 PM 14.0 °F -2.5 °F -0.9 °F 52% 30.08 in 10.0 mi NW 17.3 mph 23.0 mph N/A   Partly Cloudy
5:53 PM 12.9 °F -0.9 °F -0.9 °F 54% 30.11 in 10.0 mi NW 11.5 mph - N/A   Mostly Cloudy
6:53 PM 10.9 °F 2.9 °F -0.0 °F 61% 30.14 in 10.0 mi NNW 4.6 mph - N/A   Clear
7:53 PM 10.9 °F 1.4 °F -4.0 °F 51% 30.16 in 10.0 mi North 5.8 mph - N/A   Clear
8:53 PM 10.0 °F 0.4 °F -6.0 °F 48% 30.19 in 10.0 mi NNW 5.8 mph - N/A   Clear
9:53 PM 8.1 °F - -7.1 °F 50% 30.21 in 10.0 mi Calm Calm - N/A   Clear
10:53 PM 6.1 °F - -5.1 °F 60% 30.23 in 10.0 mi Calm Calm - N/A   Clear
11:53 PM 5.0 °F - -4.0 °F 66% 30.23 in 10.0 mi Calm Calm - N/A   Clear